Date String (YYYY-MM-DD hh:mm:ss) UTC,Instrument flags,Ambient pressure (hPa),Sample flow (lpm),Bypass flow (lpm),Sample temperature (°C),Ambient temperature (°C),ASC tube jacket temperature (°C),LED temperature (°C),Box temperature (°C),Sample RH (%),Span deviation,Mass concentration (μg/m³),Mass concentration (μg/m³),Mass concentration (μg/m³)
DateTimeUTC,F1_M11,P_M11,Q1_M11,Q2_M11,T1_M11,T2_M11,T3_M11,T4_M11,T5_M11,U1_M11,ZSPAN_M11,X0_M11,X2_M11,X1_M11
2023-01-20 13:00:00,,0826.9,5.02,0.00,22.4,21.1,00.0,31.1,24.2,09.2,0000.0,0013.41,0009.08,0008.66
2023-01-20 13:01:00,,0827.2,5.00,0.00,22.4,21.0,00.0,31.1,24.1,09.2,0000.0,0013.13,0009.14,0008.68
2023-01-20 13:02:00,,0827.0,5.01,0.00,22.4,20.9,00.0,31.1,24.1,09.3,0000.0,0013.23,0009.22,0008.74
2023-01-20 13:03:00,,0826.9,5.00,0.00,22.3,20.8,00.0,31.1,24.0,09.4,0000.1,0013.45,0009.29,0008.82
2023-01-20 13:04:00,,0827.1,5.01,0.00,22.3,20.8,00.0,31.1,24.0,09.4,0001.3,0013.55,0009.36,0008.89
2023-01-20 13:05:00,,0827.0,5.01,0.00,22.3,20.7,00.0,31.1,24.0,09.6,0000.2,0013.76,0009.49,0009.01
2023-01-20 13:06:00,,0827.0,4.99,0.00,22.3,20.7,00.0,31.1,24.0,09.8,0000.5,0014.61,0009.78,0009.26
2023-01-20 13:07:00,,0827.1,4.99,0.00,22.3,20.7,00.0,31.1,24.0,10.0,0002.1,0015.05,0010.06,0009.54
2023-01-20 13:08:00,,0827.1,5.00,0.00,22.3,20.8,00.0,31.1,24.0,09.7,0002.1,0015.14,0010.14,0009.65
2023-01-20 13:09:00,,0827.0,5.00,0.00,22.3,21.6,00.0,31.0,24.1,09.6,0001.8,0015.11,0010.13,0009.65
2023-01-20 13:10:00,,0827.1,4.99,0.00,22.4,22.6,00.0,31.1,24.4,09.9,0001.6,0015.34,0010.29,0009.82
2023-01-20 13:11:00,,0827.3,4.99,0.00,22.5,23.0,00.0,31.1,24.5,09.8,0001.5,0015.65,0010.46,0009.97
2023-01-20 13:12:00,,0827.1,4.98,0.00,22.6,22.6,00.0,31.1,24.5,09.7,0001.8,0015.70,0010.53,0010.06
2023-01-20 13:13:00,,0827.1,5.01,0.00,22.6,22.1,00.0,31.2,24.4,09.9,0001.4,0015.58,0010.69,0010.22
2023-01-20 13:14:00,,0827.2,5.00,0.00,22.6,21.7,00.0,31.2,24.3,09.8,0001.9,0015.79,0010.96,0010.46
2023-01-20 13:15:00,,0827.2,4.99,0.00,22.5,21.5,00.0,31.2,24.3,09.8,0001.3,0016.14,0011.30,0010.80
2023-01-20 13:16:00,,0827.2,5.00,0.00,22.5,21.3,00.0,31.2,24.3,09.7,0001.0,0016.35,0011.54,0011.07
2023-01-20 13:17:00,,0827.1,4.99,0.00,22.5,21.2,00.0,31.2,24.2,09.6,0001.2,0015.90,0011.63,0011.18
2023-01-20 13:18:00,,0827.1,5.02,0.00,22.5,21.1,00.0,31.2,24.2,09.6,0001.7,0015.64,0011.62,0011.18
2023-01-20 13:19:00,,0827.1,4.99,0.00,22.5,21.0,00.0,31.2,24.2,09.7,0001.9,0015.76,0011.77,0011.30
2023-01-20 13:20:00,,0827.1,5.02,0.00,22.5,20.9,00.0,31.2,24.2,09.7,0001.7,0016.18,0012.05,0011.60
2023-01-20 13:21:00,,0827.2,5.02,0.00,22.4,20.9,00.0,31.2,24.1,09.7,0001.6,0017.30,0012.17,0011.69
2023-01-20 13:22:00,,0827.2,4.99,0.00,22.4,20.9,00.0,31.2,24.1,09.7,0002.1,0017.78,0012.32,0011.83
2023-01-20 13:23:00,,0827.2,5.01,0.00,22.4,20.8,00.0,31.2,24.1,09.7,0002.1,0017.99,0012.52,0012.04
2023-01-20 13:24:00,,0827.2,4.99,0.00,22.4,20.9,00.0,31.2,24.1,09.7,0002.5,0017.99,0012.61,0012.15
2023-01-20 13:25:00,,0827.2,5.00,0.00,22.4,20.9,00.0,31.2,24.1,09.7,0002.3,0018.02,0012.66,0012.22
2023-01-20 13:26:00,,0827.2,5.00,0.00,22.3,20.8,00.0,31.2,24.0,09.7,0002.8,0017.97,0012.67,0012.20
2023-01-20 13:27:00,,0827.2,5.01,0.00,22.3,20.9,00.0,31.2,24.0,09.6,0002.8,0018.50,0012.64,0012.14
2023-01-20 13:28:00,,0827.2,5.03,0.00,22.4,21.5,00.0,31.1,24.2,09.6,0002.0,0019.10,0012.60,0012.09
2023-01-20 13:29:00,,0827.2,5.00,0.00,22.5,22.4,00.0,31.1,24.4,09.6,0001.4,0019.57,0012.61,0012.05
2023-01-20 13:30:00,,0827.2,4.99,0.00,22.6,23.0,00.0,31.2,24.6,09.5,0001.1,0019.88,0012.61,0011.99
2023-01-20 13:31:00,,0827.2,5.00,0.00,22.6,22.7,00.0,31.2,24.6,09.5,0001.3,0019.92,0012.61,0011.97
2023-01-20 13:32:00,,0827.2,4.99,0.00,22.6,22.3,00.0,31.2,24.5,09.5,0001.2,0018.90,0012.58,0011.95
2023-01-20 13:33:00,,0827.3,5.00,0.00,22.6,21.9,00.0,31.3,24.4,09.5,0001.0,0018.27,0012.53,0011.92
2023-01-20 13:34:00,,0827.3,5.00,0.00,22.6,21.7,00.0,31.3,24.4,09.5,0000.6,0018.20,0012.49,0011.90
2023-01-20 13:35:00,,0827.3,5.00,0.00,22.6,21.5,00.0,31.3,24.4,09.5,-000.0,0018.45,0012.55,0011.88
2023-01-20 13:36:00,,0827.3,4.99,0.00,22.6,21.3,00.0,31.3,24.3,09.5,0000.0,0018.44,0012.52,0011.82
2023-01-20 13:37:00,,0827.3,5.00,0.00,22.6,21.2,00.0,31.3,24.3,09.5,0000.0,0018.44,0012.50,0011.80
2023-01-20 13:38:00,,0827.4,5.02,0.00,22.6,21.1,00.0,31.3,24.3,09.5,0000.0,0018.27,0012.49,0011.80
2023-01-20 13:39:00,,0827.4,5.01,0.00,22.5,21.0,00.0,31.3,24.3,09.5,0000.0,0017.89,0012.48,0011.81
2023-01-20 13:40:00,,0827.3,5.00,0.00,22.5,21.0,00.0,31.3,24.2,09.5,0000.0,0017.51,0012.44,0011.79
2023-01-20 13:41:00,,0827.4,5.00,0.00,22.5,21.0,00.0,31.3,24.2,09.4,0000.0,0017.05,0012.41,0011.80
2023-01-20 13:42:00,,0827.4,5.00,0.00,22.5,20.9,00.0,31.3,24.2,09.3,0000.0,0016.77,0012.27,0011.71
2023-01-20 13:43:00,,0827.4,5.00,0.00,22.5,20.9,00.0,31.3,24.2,09.3,0000.0,0016.60,0012.16,0011.61
2023-01-20 13:44:00,,0827.4,5.00,0.00,22.4,20.9,00.0,31.2,24.1,09.3,0000.0,0016.42,0012.05,0011.53
2023-01-20 13:45:00,,0827.4,5.01,0.00,22.4,20.8,00.0,31.2,24.1,09.3,0000.0,0016.68,0011.97,0011.45
2023-01-20 13:46:00,,0827.4,5.00,0.00,22.4,20.8,00.0,31.2,24.1,09.3,0000.0,0016.58,0011.81,0011.35
2023-01-20 13:47:00,,0827.4,5.02,0.00,22.4,21.3,00.0,31.2,24.2,09.3,0000.0,0016.47,0011.72,0011.29
2023-01-20 13:48:00,,0827.4,5.00,0.00,22.5,22.3,00.0,31.2,24.4,09.3,0000.0,0016.36,0011.59,0011.15
2023-01-20 13:49:00,,0827.4,5.00,0.00,22.6,23.0,00.0,31.2,24.6,09.1,0000.0,0016.08,0011.43,0010.97
2023-01-20 13:50:00,,0827.4,4.99,0.00,22.7,22.8,00.0,31.3,24.7,09.1,0000.0,0015.80,0011.21,0010.79
2023-01-20 13:51:00,,0827.4,5.01,0.00,22.7,22.4,00.0,31.3,24.6,09.0,0000.0,0015.66,0011.02,0010.59
2023-01-20 13:52:00,,0827.4,5.01,0.00,22.7,22.0,00.0,31.3,24.5,09.0,0000.0,0015.44,0010.83,0010.41
2023-01-20 13:53:00,,0827.4,5.00,0.00,22.7,21.7,00.0,31.3,24.5,09.0,0000.0,0015.46,0010.78,0010.32
2023-01-20 13:54:00,,0827.4,4.99,0.00,22.7,21.5,00.0,31.3,24.4,09.0,0000.0,0015.32,0010.66,0010.19
2023-01-20 13:55:00,,0827.4,5.01,0.00,22.6,21.3,00.0,31.3,24.4,09.0,0000.0,0015.37,0010.53,0010.01
2023-01-20 13:56:00,,0827.4,5.01,0.00,22.6,21.2,00.0,31.3,24.3,09.0,0000.0,0015.28,0010.38,0009.83
2023-01-20 13:57:00,,0827.4,5.00,0.00,22.6,21.1,00.0,31.3,24.3,09.0,-000.6,0014.93,0010.19,0009.65
2023-01-20 13:58:00,,0827.4,5.01,0.00,22.6,21.0,00.0,31.3,24.3,09.0,-000.3,0014.64,0009.99,0009.46
2023-01-20 13:59:00,,0827.4,4.97,0.00,22.6,21.0,00.0,31.3,24.3,09.0,0000.0,0014.38,0009.81,0009.30
